[[{"header":{"parameterUnit":"m.s-1","parameterCategory":1,"la1":30.2991,"la2":30.254,"lo1":-89.0895,"lo2":-89.0444,"dy":0.0017,"dx":0.0017,"nx":28,"ny":28,"refTime":"2023-10-10T21:00:00:Z","depth":0,"parameterNumber":2,"parameterNumberName":"U-component_of_WINDS"},"data":[0,0,0,0,0,0,0,0,0,0,0,0,0,0,0,0,0,0,0,0,0,0,0,0,0,0,0,0,0,0,0,0,0,0,0,0,0,0,0,0,0,0,0,0,0,0,0,0,0,0,0,0,0,0,0,0,0,0,-2.2676,-2.2678,0,-2.2832,-2.2833,-2.2835,-2.2824,-2.2822,-2.282,-2.2818,-2.298,-2.2986,-2.2993,0,0,0,0,0,0,0,0,0,0,0,0,0,-2.2371,-2.2377,-2.2676,-2.2678,-2.268,-2.2831,-2.2834,-2.2836,-2.2825,-2.2822,-2.2819,-2.2817,-2.2978,-2.2986,-2.2993,0,0,0,0,0,0,0,0,0,0,0,0,0,-2.2513,-2.2379,-2.2675,-2.2693,-2.2696,-2.2831,-2.2834,-2.2836,-2.2825,-2.2822,-2.2819,-2.2815,-2.2975,-2.2985,-2.2994,-2.3124,0,0,-2.3024,-2.3028,0,0,0,0,0,0,0,0,-2.2505,-2.2524,-2.2688,-2.2692,-2.2695,-2.2805,-2.2786,-2.2933,-2.2826,-2.2776,-2.2818,-2.2814,-2.2925,-2.2938,-2.2975,-2.3131,-2.3138,-2.3025,-2.3031,-2.3035,-2.3038,0,0,0,0,0,0,0,-2.2495,-2.2518,-2.2738,-2.269,-2.2695,-2.2693,-2.2709,-2.2814,-2.2868,-2.278,-2.278,-2.2798,-2.2926,-2.2966,-2.2979,-2.3141,-2.3025,-2.3033,-2.3039,-2.3043,-2.3412,-2.3415,0,0,0,0,0,0,-2.2481,-2.2509,-2.2733,-2.2742,-2.259,-2.2701,-2.272,-2.2773,-2.2867,-2.2878,-2.2801,-2.2797,-2.2951,-2.2968,-2.2985,-2.3144,-2.3035,-2.3044,-2.305,-2.3408,-2.3413,-2.3417,0,0,0,0,0,0,-2.2475,-2.2501,-2.2726,-2.2626,-2.2654,-2.271,-2.2771,-2.2778,-2.2818,-2.2883,-2.2893,-2.2832,-2.2949,-2.2971,-2.3089,-2.3149,-2.3048,-2.3057,-2.3403,-2.3409,-2.3415,-2.3461,0,0,0,0,0,0,-2.2466,-2.2499,-2.2548,-2.2627,-2.266,-2.2828,-2.2774,-2.2784,-2.2835,-2.2831,-2.2914,-2.2925,-2.2948,-2.3075,-2.3099,-2.3161,-2.3065,-2.3398,-2.3406,-2.3413,-2.3455,-2.3468,-2.348,0,0,0,0,0,-2.2455,-2.2555,-2.2551,-2.2578,-2.2722,-2.2831,-2.285,-2.2874,-2.2839,-2.289,-2.2931,-2.2922,-2.3138,-2.3087,-2.3114,-2.318,-2.3394,-2.3404,-2.3412,-2.3449,-2.3466,-2.3479,0,0,0,0,0,0,-2.2483,-2.2566,-2.2562,-2.269,-2.2754,-2.2829,-2.2893,-2.2891,-2.2966,-2.2959,-2.2987,-2.3006,-2.3125,-2.3164,-2.3105,-2.331,-2.3262,-2.3277,-2.3281,-2.3297,-2.3309,-2.3298,-2.3073,0,0,0,0,0,-2.2504,-2.2585,-2.2653,-2.276,-2.2792,-2.2837,-2.2885,-2.2899,-2.2966,-2.2993,-2.3043,-2.3109,-2.3192,-2.3246,-2.3326,-2.346,-2.3478,-2.3518,-2.353,-2.354,-2.3553,-2.3628,-2.3647,-2.3446,-2.3446,-2.3446,0,0,-2.2549,-2.2604,-2.2653,-2.2767,-2.2818,-2.2902,-2.286,-2.295,-2.3013,-2.3007,-2.3122,-2.3161,-2.3236,-2.3363,-2.3421,-2.3399,-2.3612,-2.3551,-2.3559,-2.3567,-2.3639,-2.3658,-2.3675,-2.3452,-2.3451,-2.345,0,0,-2.2673,-2.2722,-2.2817,-2.2869,-2.2946,-2.2975,-2.2998,-2.3074,-2.3099,-2.3214,-2.3212,-2.3287,-2.3429,-2.3483,-2.353,-2.3674,-2.3669,-2.3699,-2.3765,-2.3838,-2.3853,-2.3868,-2.3921,-2.3939,-2.3712,-2.3712,-2.3712,0,-2.2719,-2.2845,-2.2867,-2.2958,-2.3009,-2.3005,-2.3103,-2.3152,-2.3251,-2.3286,-2.3259,-2.3438,-2.3488,-2.3629,-2.3664,-2.3701,-2.3729,-2.3691,-2.3849,-2.3864,-2.3877,-2.3928,-2.3948,-2.3715,-2.3715,-2.3714,-2.3714,0,-2.2899,-2.2986,-2.3053,-2.3149,-2.3207,-2.33,-2.3337,-2.3394,-2.3401,-2.3434,-2.3552,-2.3612,-2.3705,-2.3738,-2.3747,-2.388,-2.3864,-2.3843,-2.3795,-2.3899,-2.3948,-2.3968,-2.372,-2.3719,-2.3718,-2.3717,0,0,-2.3047,-2.3152,-2.3177,-2.322,-2.3305,-2.3373,-2.3467,-2.3556,-2.3605,-2.3673,-2.3753,-2.3873,-2.3854,-2.3907,-2.3921,-2.3985,-2.4097,-2.3956,-2.3958,-2.3982,-2.4249,-2.4266,-2.4288,-2.4093,-2.4097,-2.41,-2.4243,0,-2.3181,-2.3347,-2.3369,-2.3516,-2.3598,-2.3595,-2.3677,-2.3738,-2.3771,-2.3845,-2.3881,-2.3967,-2.3934,-2.3966,-2.4029,-2.407,-2.4152,-2.406,-2.417,-2.4174,-2.4153,-2.4313,-2.4331,-2.4464,-2.4262,-2.4266,-2.4268,0,-2.336,-2.3433,-2.3588,-2.3662,-2.3697,-2.377,-2.3854,-2.3925,-2.3994,-2.4013,-2.4072,-2.4078,-2.4177,-2.4123,-2.426,-2.4197,-2.4243,-2.427,-2.4276,-2.4289,-2.4228,-2.4332,-2.4506,-2.4527,-2.4298,-2.4295,-2.4293,0,-2.3455,-2.3591,-2.3702,-2.3739,-2.3827,-2.3879,-2.3918,-2.3984,-2.4036,-2.411,-2.4145,-2.4229,-2.4275,-2.4341,-2.437,-2.4329,-2.4506,-2.4454,-2.4526,-2.4525,-2.4565,-2.4562,-2.4751,-2.4591,-2.4591,-2.4591,-2.459,0,-2.3603,-2.3699,-2.3746,-2.3814,-2.3921,-2.3946,-2.4051,-2.4089,-2.4148,-2.4224,-2.4226,-2.4298,-2.4332,-2.4409,-2.4433,-2.4543,-2.4564,-2.4583,-2.4589,-2.4584,-2.4582,-2.4616,-2.4608,-2.4596,-2.4595,-2.4594,-2.4593,0,-2.3728,-2.3763,-2.3884,-2.3957,-2.3977,-2.4053,-2.4117,-2.4183,-2.4214,-2.4311,-2.4335,-2.4385,-2.4476,-2.4512,-2.4623,-2.4639,-2.4766,-2.4764,-2.4743,-2.4745,-2.4815,-2.4809,-2.5034,-2.5065,-2.4883,-2.4885,-2.4886,0,-2.3821,-2.3895,-2.3976,-2.4027,-2.4067,-2.4149,-2.4203,-2.423,-2.4286,-2.437,-2.4427,-2.4517,-2.4591,-2.4737,-2.4784,-2.4869,-2.487,-2.4943,-2.4883,-2.4876,-2.4873,-2.4869,-2.4877,-2.4954,-2.4956,-2.4958,-2.4959,0,-2.3984,-2.3998,-2.4074,-2.4158,-2.4221,-2.4288,-2.4353,-2.4395,-2.4432,-2.4494,-2.4587,-2.4644,-2.4757,-2.4848,-2.4936,-2.4977,-2.4975,-2.4977,-2.4999,-2.4996,-2.4981,-2.4992,-2.4775,-2.4972,-2.4971,-2.497,-2.4969,-2.4969,-2.4098,-2.4163,-2.423,-2.4316,-2.4367,-2.4428,-2.4494,-2.4534,-2.4611,-2.4705,-2.4716,-2.4816,-2.4884,-2.5002,-2.5047,-2.5126,-2.5107,-2.5137,-2.5145,-2.5153,-2.5159,-2.4967,-2.5142,-2.5141,-2.5141,-2.5141,-2.514,0,-2.4262,-2.4305,-2.4383,-2.4474,-2.4541,-2.4532,-2.4603,-2.4661,-2.4748,-2.4811,-2.4884,-2.4991,-2.5078,-2.5131,-2.522,-2.5273,-2.5274,-2.5295,-2.5293,-2.5303,-2.517,-2.5143,-2.5293,-2.5293,-2.5293,-2.5293,-2.5293,-2.5293,-2.4356,-2.4466,-2.4488,-2.4624,-2.4666,-2.4764,-2.4806,-2.4862,-2.4913,-2.5032,-2.5104,-2.5138,-2.5197,-2.529,-2.537,-2.5384,-2.5417,-2.544,-2.5452,-2.5327,-2.5312,-2.5297,-2.5272,-2.5446,-2.5446,-2.5578,-2.558,-2.5581]},{"header":{"parameterUnit":"m.s-1","parameterCategory":1,"la1":30.2991,"la2":30.254,"lo1":-89.0895,"lo2":-89.0444,"dy":0.0017,"dx":0.0017,"nx":28,"ny":28,"refTime":"2023-10-10T21:00:00:Z","depth":0,"parameterNumber":3,"parameterNumberName":"V-component_of_WINDS"},"data":[0,0,0,0,0,0,0,0,0,0,0,0,0,0,0,0,0,0,0,0,0,0,0,0,0,0,0,0,0,0,0,0,0,0,0,0,0,0,0,0,0,0,0,0,0,0,0,0,0,0,0,0,0,0,0,0,0,0,-7.0981,-7.0982,0,-7.1045,-7.1045,-7.1046,-7.0944,-7.094,-7.0937,-7.0933,-7.0994,-7.0998,-7.1003,0,0,0,0,0,0,0,0,0,0,0,0,0,-7.0766,-7.077,-7.0981,-7.0982,-7.0983,-7.1045,-7.1045,-7.1046,-7.0944,-7.094,-7.0936,-7.0932,-7.0992,-7.0998,-7.1003,0,0,0,0,0,0,0,0,0,0,0,0,0,-7.0847,-7.0772,-7.0981,-7.0939,-7.0936,-7.1044,-7.1045,-7.1046,-7.0945,-7.094,-7.0935,-7.093,-7.099,-7.0997,-7.1004,-7.1154,0,0,-7.1027,-7.103,0,0,0,0,0,0,0,0,-7.0843,-7.0855,-7.0945,-7.0942,-7.0939,-7.0981,-7.0991,-7.1083,-7.0946,-7.0942,-7.0933,-7.0927,-7.0993,-7.1,-7.1023,-7.1157,-7.116,-7.1027,-7.1032,-7.1035,-7.1037,0,0,0,0,0,0,0,-7.0837,-7.0852,-7.1006,-7.0946,-7.0943,-7.0916,-7.0921,-7.1008,-7.0996,-7.0942,-7.0934,-7.0944,-7.0991,-7.1016,-7.1024,-7.1161,-7.1027,-7.1034,-7.1038,-7.1041,-7.142,-7.1425,0,0,0,0,0,0,-7.0837,-7.0848,-7.1004,-7.1008,-7.0877,-7.0924,-7.093,-7.0973,-7.0995,-7.0993,-7.0948,-7.0939,-7.1007,-7.1015,-7.1026,-7.1202,-7.1035,-7.1042,-7.1046,-7.1414,-7.1421,-7.1427,0,0,0,0,0,0,-7.0833,-7.0852,-7.1001,-7.0926,-7.0943,-7.0933,-7.0982,-7.0977,-7.1002,-7.1,-7.0996,-7.0977,-7.1003,-7.1015,-7.1123,-7.1203,-7.1045,-7.1052,-7.1408,-7.1416,-7.1424,-7.1558,0,0,0,0,0,0,-7.0828,-7.0852,-7.091,-7.0928,-7.0947,-7.11,-7.0987,-7.0982,-7.1016,-7.1004,-7.1026,-7.1024,-7.1,-7.1113,-7.1131,-7.121,-7.1057,-7.14,-7.1411,-7.1422,-7.1546,-7.157,-7.159,0,0,0,0,0,-7.082,-7.0944,-7.0913,-7.0933,-7.1021,-7.1105,-7.1116,-7.1086,-7.1023,-7.108,-7.1078,-7.1024,-7.1192,-7.1125,-7.1144,-7.1227,-7.1395,-7.1408,-7.1421,-7.1537,-7.1565,-7.159,0,0,0,0,0,0,-7.0934,-7.0946,-7.0912,-7.1046,-7.1076,-7.1088,-7.116,-7.1118,-7.1165,-7.1152,-7.1111,-7.1117,-7.1233,-7.124,-7.1166,-7.1373,-7.1282,-7.13,-7.1364,-7.1391,-7.1413,-7.1409,-7.1063,0,0,0,0,0,-7.0975,-7.1044,-7.105,-7.1167,-7.1184,-7.117,-7.1205,-7.118,-7.1208,-7.122,-7.1226,-7.1254,-7.1313,-7.1352,-7.1406,-7.1547,-7.1549,-7.1613,-7.1635,-7.1653,-7.1668,-7.1742,-7.1771,-7.1469,-7.1469,-7.1469,0,0,-7.1059,-7.1074,-7.112,-7.1191,-7.1211,-7.1282,-7.1181,-7.126,-7.1312,-7.1231,-7.1334,-7.134,-7.1368,-7.1493,-7.1548,-7.1503,-7.1752,-7.1669,-7.1684,-7.1689,-7.1758,-7.1787,-7.1812,-7.1478,-7.1476,-7.1475,0,0,-7.125,-7.1269,-7.1369,-7.1391,-7.1423,-7.1413,-7.1437,-7.1456,-7.1457,-7.1559,-7.15,-7.156,-7.1662,-7.1685,-7.171,-7.1909,-7.186,-7.1928,-7.2042,-7.2115,-7.2139,-7.2159,-7.223,-7.2256,-7.1943,-7.1943,-7.1943,0,-7.1351,-7.1458,-7.1425,-7.1509,-7.1541,-7.1473,-7.1572,-7.1595,-7.1643,-7.1665,-7.1614,-7.1741,-7.1756,-7.1884,-7.1933,-7.1956,-7.1981,-7.1925,-7.2138,-7.2159,-7.2178,-7.2244,-7.2271,-7.1951,-7.195,-7.1949,-7.1949,0,-7.158,-7.1654,-7.1731,-7.1781,-7.1821,-7.1913,-7.1892,-7.1936,-7.1907,-7.1902,-7.2006,-7.2021,-7.2077,-7.2105,-7.2077,-7.223,-7.2201,-7.2145,-7.2053,-7.2215,-7.2277,-7.2302,-7.1963,-7.196,-7.1957,-7.1955,0,0,-7.1844,-7.1875,-7.1903,-7.1925,-7.1955,-7.2011,-7.2099,-7.2155,-7.2193,-7.2228,-7.23,-7.2388,-7.2336,-7.2364,-7.2338,-7.2402,-7.2558,-7.2337,-7.2337,-7.2377,-7.2726,-7.2769,-7.2799,-7.2525,-7.253,-7.2534,-7.2724,0,-7.2034,-7.2188,-7.2161,-7.2309,-7.2377,-7.2312,-7.2388,-7.2414,-7.2411,-7.2466,-7.2462,-7.2525,-7.2452,-7.2469,-7.2529,-7.2526,-7.2627,-7.2512,-7.259,-7.2594,-7.2586,-7.2832,-7.2877,-7.3056,-7.2748,-7.2752,-7.2755,0,-7.2276,-7.2322,-7.2478,-7.2497,-7.2525,-7.2594,-7.2643,-7.2697,-7.2724,-7.2717,-7.2749,-7.2711,-7.2796,-7.2703,-7.2819,-7.2742,-7.2772,-7.2775,-7.2781,-7.2787,-7.2684,-7.2844,-7.3112,-7.3139,-7.2793,-7.279,-7.2787,0,-7.2454,-7.2554,-7.266,-7.268,-7.2705,-7.2755,-7.2768,-7.279,-7.2825,-7.2867,-7.2889,-7.294,-7.2967,-7.3007,-7.2982,-7.2917,-7.3102,-7.3008,-7.3098,-7.3099,-7.314,-7.3138,-7.3416,-7.316,-7.3159,-7.3159,-7.3158,0,-7.2669,-7.2767,-7.274,-7.2806,-7.2913,-7.2879,-7.2985,-7.299,-7.301,-7.3073,-7.302,-7.308,-7.3044,-7.3101,-7.3082,-7.3181,-7.3193,-7.3189,-7.3183,-7.3194,-7.3195,-7.3213,-7.32,-7.3166,-7.3164,-7.3163,-7.3162,0,-7.2885,-7.2872,-7.2983,-7.2998,-7.3004,-7.3082,-7.3093,-7.3153,-7.3146,-7.3227,-7.3244,-7.3232,-7.3296,-7.3276,-7.3344,-7.3331,-7.3457,-7.3434,-7.3449,-7.3443,-7.3534,-7.3526,-7.3835,-7.3873,-7.3592,-7.3595,-7.3597,0,-7.3024,-7.3098,-7.3121,-7.3161,-7.3178,-7.3242,-7.3278,-7.3247,-7.3287,-7.3323,-7.3378,-7.3438,-7.3484,-7.359,-7.3586,-7.3638,-7.3616,-7.3721,-7.3624,-7.3633,-7.3618,-7.3614,-7.3621,-7.374,-7.3744,-7.3746,-7.3748,0,-7.3271,-7.326,-7.3315,-7.3369,-7.3414,-7.3453,-7.3488,-7.3523,-7.3494,-7.354,-7.3607,-7.3643,-7.3713,-7.3773,-7.382,-7.383,-7.3785,-7.3779,-7.3803,-7.3815,-7.382,-7.3819,-7.3501,-7.3772,-7.377,-7.3768,-7.3767,-7.3766,-7.3452,-7.3515,-7.3541,-7.3604,-7.3627,-7.3661,-7.3718,-7.3718,-7.3773,-7.383,-7.3807,-7.3883,-7.3907,-7.3965,-7.3982,-7.404,-7.3999,-7.4033,-7.4042,-7.4051,-7.4063,-7.3811,-7.4048,-7.4047,-7.4046,-7.4046,-7.4045,0,-7.3696,-7.371,-7.3768,-7.3819,-7.3869,-7.3823,-7.3858,-7.3902,-7.397,-7.3997,-7.4044,-7.4119,-7.4177,-7.4178,-7.4231,-7.4276,-7.4257,-7.4291,-7.4288,-7.4291,-7.4096,-7.407,-7.4306,-7.4306,-7.4306,-7.4306,-7.4306,-7.4306,-7.3829,-7.3933,-7.3926,-7.4039,-7.4051,-7.4127,-7.4151,-7.4181,-7.4202,-7.429,-7.4338,-7.4338,-7.4354,-7.4408,-7.4458,-7.4457,-7.4479,-7.4521,-7.4512,-7.433,-7.4304,-7.428,-7.4255,-7.4526,-7.4527,-7.4702,-7.4703,-7.4705]}]]